Location: East Horndon
(51.5667°N, 0.3500°E)
Time: 01:10:44
(UTC+00:00)

Cosmos 1707 Rocket - Pass Details

Date: 08 November 2025
Orbit: 599 x 624 km, 82.5° (Epoch: 13 December)

Event Time Altitude Azimuth Distance (km) Brightness Sun altitude
Exits shadow 04:42:45 44° 336° (NNW) 864 4.1 -22.2°
Drops below altitude 10° 04:46:02 10° 4° (N) 1,998 6.2 -21.7°
Sets 04:48:19 0° 8° (N) 2,913 7.1 -21.3°
